Content
SEND FEEDBACK

Daily
Averages
Monthly
Summary
French Polynesia

PAPEETE, FRENCH POLYNESIA


Home > Oceania > French Polynesia
Elevation: 7 feet     Latitude: 17 33S     Longitude: 149 36W

WEATHER
 
SELECT A DAY
Number of Records: 208,679;   Date Range: 6/30/96 - 8/10/14
 
SHARE

PRINT THIS DATA

[ ← Previous Day ]
WEATHER ALMANAC - MARCH 1, 2013
[ Next Day → ]
[ °C ]   °F
Weather ElementAverageHighLow
Temperature79 °F86 °F (9:30 am)73.4 °F (11:30 pm)
Dewpoint70.2 °F75.2 °F (1:30 pm)64.4 °F (9:30 pm)
Humidity73.7 %83 % (12:30 am)61 % (11:00 am)
Barometer29.87 in29.91 in (8:00 am)29.80 in (5:30 pm)
Wind Speed5.9 mph11.5 mph (10:30 am)
Wind Gust25.3 mph (3:00 pm)
Weather ElementAverage
Visibility6.8 mi
Wind DirectionE (91.5 °)

Weather ElementTotal
Precipitation---
Cooling Degree Days14.7 (Base 65)
Growing Degree Days29.7 (Base 50)
Averaged from 54 records on March 1, 2013
WEATHER CONDITIONS BREAKOUT
WIND DIRECTION BREAKOUT
WEATHER BY HOUR - MARCH 1, 2013
[ °C ]   °F
Local TimeTemperatureDewpointHumidityBarometerVisibilityWind DirectionWind SpeedGust SpeedPrecipitationEventsConditions
12:30 AM77.0 °F71.6 °F83 %29.89 in6.2 miVariable1.2 mphPartly Cloudy
1:00 AM77.0 °F69.8 °F78 %29.86 in6.2 miVariable2.3 mphScattered Clouds
1:30 AM77.0 °F69.8 °F78 %29.86 in6.2 miSSE (150°)3.5 mphMostly Cloudy
2:00 AM77.0 °F70.0 °F74 %29.86 in9.0 miSSE (150°)4.5 mphScattered Clouds
2:00 AM77.0 °F69.8 °F78 %29.86 in6.2 miVariable2.3 mphMostly Cloudy
2:30 AM77.0 °F71.6 °F83 %29.83 in6.2 miVariable1.2 mphMostly Cloudy
3:00 AM77.0 °F71.6 °F83 %29.86 in6.2 miCalmMostly Cloudy
3:30 AM77.0 °F69.8 °F78 %29.86 in6.2 miSE (130°)2.3 mph
4:00 AM77.0 °F69.8 °F78 %29.86 in6.2 miSouth (190°)3.5 mph
4:30 AM77.0 °F71.6 °F83 %29.86 in6.2 miVariable2.3 mph
5:00 AM77.0 °F71.6 °F83 %29.86 in6.2 miSE (140°)3.5 mph
5:30 AM77.0 °F71.6 °F83 %29.86 in6.2 miCalm
6:00 AM75.2 °F69.8 °F83 %29.86 in6.2 miEast (90°)4.6 mphMostly Cloudy
6:30 AM77.0 °F69.8 °F78 %29.89 in6.2 miVariable3.5 mphMostly Cloudy
7:00 AM77.0 °F69.8 °F78 %29.89 in6.2 miVariable2.3 mphMostly Cloudy
7:30 AM78.8 °F71.6 °F78 %29.89 in6.2 miCalmMostly Cloudy
8:00 AM82.0 °F72.0 °F66 %29.91 in25.0 miNNW (330°)2.3 mphPartly Cloudy
8:00 AM82.4 °F71.6 °F70 %29.89 in6.2 miVariable2.3 mphScattered Clouds
8:30 AM84.2 °F69.8 °F62 %29.89 in6.2 miNNE (20°)6.9 mphScattered Clouds
9:00 AM84.2 °F71.6 °F66 %29.89 in6.2 miNE (40°)8.1 mphScattered Clouds
9:30 AM86.0 °F73.4 °F66 %29.89 in6.2 miNE (40°)10.4 mphScattered Clouds
10:00 AM86.0 °F73.4 °F66 %29.89 in6.2 miNE (40°)10.4 mphScattered Clouds
10:30 AM86.0 °F73.4 °F66 %29.89 in6.2 miNNE (30°)11.5 mphScattered Clouds
11:00 AM85.0 °F74.0 °F61 %29.91 in12.0 miNE (50°)10.4 mphPartly Cloudy
11:00 AM84.2 °F73.4 °F70 %29.89 in6.2 miNE (50°)10.4 mphMostly Cloudy
11:30 AM86.0 °F73.4 °F66 %29.89 in6.2 miNE (50°)8.1 mphMostly Cloudy
12:00 PM86.0 °F73.4 °F66 %29.86 in6.2 miNE (50°)6.9 mphMostly Cloudy
12:30 PM86.0 °F73.4 °F66 %29.86 in6.2 miNNE (30°)10.4 mphThunderstormMostly Cloudy
1:00 PM84.2 °F73.4 °F70 %29.86 in6.2 miNNE (30°)9.2 mphMostly Cloudy
1:30 PM84.2 °F75.2 °F74 %29.83 in6.2 miNNE (20°)11.5 mphMostly Cloudy
2:00 PM83.0 °F74.0 °F66 %29.86 in9.0 miNNE (30°)10.4 mphPartly Cloudy
2:00 PM84.2 °F73.4 °F70 %29.86 in6.2 miNNE (30°)10.4 mphMostly Cloudy
2:30 PM82.4 °F73.4 °F74 %29.83 in6.2 miNorth (360°)5.8 mphThunderstormMostly Cloudy
3:00 PM80.6 °F71.6 °F74 %29.86 in5.6 miWNW (300°)11.5 mph25.3 mphSqualls
3:30 PM75.2 °F69.8 °F83 %29.89 in3.1 miWest (280°)10.4 mphRain-ThunderstormThunderstorms and Rain
4:00 PM75.2 °F66.2 °F73 %29.86 in6.2 miEast (80°)6.9 mphRain-ThunderstormLight Thunderstorms and Rain
4:30 PM75.2 °F69.8 °F83 %29.86 in5.0 miEast (90°)6.9 mphRainLight Rain
5:00 PM76.0 °F69.0 °F75 %29.85 in7.0 miENE (70°)4.6 mphRainLight Rain
5:00 PM75.2 °F69.8 °F83 %29.83 in6.2 miENE (70°)4.6 mphRainLight Rain
5:30 PM75.2 °F68.0 °F78 %29.80 in6.2 miNNE (20°)3.5 mphMostly Cloudy
6:00 PM75.2 °F66.2 °F73 %29.83 in6.2 miEast (80°)3.5 mphRainLight Rain
6:37 PM75.2 °F68.0 °F78 %29.83 in6.2 miSouth (170°)4.6 mphRainLight Rain
7:00 PM75.2 °F68.0 °F78 %29.86 in6.2 miSouth (170°)4.6 mphRainLight Rain
7:30 PM75.2 °F68.0 °F78 %29.89 in6.2 miSouth (170°)5.8 mphRainLight Rain
8:00 PM76.0 °F67.0 °F66 %29.90 in9.0 miSouth (170°)9.2 mphRainLight Rain
8:00 PM77.0 °F66.2 °F69 %29.89 in6.2 miSouth (170°)9.2 mphRainLight Rain
8:30 PM77.0 °F66.2 °F69 %29.89 in6.2 miSouth (180°)4.6 mphMostly Cloudy
9:00 PM77.0 °F66.2 °F69 %29.89 in6.2 miSouth (170°)9.2 mphMostly Cloudy
9:30 PM78.8 °F64.4 °F61 %29.89 in6.2 miSouth (170°)9.2 mphMostly Cloudy
10:00 PM77.0 °F66.2 °F69 %29.89 in6.2 miSouth (190°)8.1 mphMostly Cloudy
10:30 PM77.0 °F64.4 °F65 %29.89 in6.2 miENE (60°)3.5 mphRainLight Rain
11:00 PM75.0 °F67.0 °F71 %29.89 in9.0 miEast (100°)4.6 mphRainLight Rain
11:00 PM75.2 °F68.0 °F78 %29.89 in6.2 miEast (100°)4.6 mphMostly Cloudy
11:30 PM73.4 °F68.0 °F83 %29.86 in6.2 miEast (80°)4.6 mphMostly Cloudy
Hourly data recorded from NTAA, located miles away from Papeete, French Polynesia







STORIES FROM OUR PARTNERS